TimeCDT,TemperatureF,Dew PointF,Humidity,Sea Level PressureIn,VisibilityMPH,Wind Direction,Wind SpeedMPH,Gust SpeedMPH,PrecipitationIn,Events,Conditions,WindDirDegrees,DateUTC
12:53 AM,36.0,30.9,82,30.37,10.0,Calm,Calm,-,N/A,,Clear,0,2012-10-07 05:53:00
1:53 AM,39.9,33.1,77,30.37,10.0,Calm,Calm,-,N/A,,Mostly Cloudy,0,2012-10-07 06:53:00
2:53 AM,36.0,32.0,86,30.38,10.0,Calm,Calm,-,N/A,,Clear,0,2012-10-07 07:53:00
3:53 AM,36.0,32.0,86,30.36,10.0,Calm,Calm,-,N/A,,Clear,0,2012-10-07 08:53:00
4:53 AM,34.0,30.0,85,30.36,10.0,Calm,Calm,-,N/A,,Clear,0,2012-10-07 09:53:00
5:53 AM,34.0,30.0,85,30.35,10.0,Calm,Calm,-,N/A,,Clear,0,2012-10-07 10:53:00
7:53 AM,35.1,32.0,89,30.36,10.0,Calm,Calm,-,N/A,,Clear,0,2012-10-07 12:53:00
8:53 AM,37.0,33.1,86,30.38,10.0,Calm,Calm,-,N/A,,Clear,0,2012-10-07 13:53:00
9:53 AM,42.1,35.1,76,30.38,10.0,Calm,Calm,-,N/A,,Clear,0,2012-10-07 14:53:00
10:53 AM,46.0,32.0,58,30.38,10.0,Calm,Calm,-,N/A,,Clear,0,2012-10-07 15:53:00
11:53 AM,50.0,28.0,43,30.35,10.0,Variable,4.6,-,N/A,,Clear,0,2012-10-07 16:53:00
12:53 PM,50.0,26.1,39,30.35,10.0,Variable,3.5,-,N/A,,Clear,0,2012-10-07 17:53:00
1:53 PM,51.1,25.0,36,30.31,10.0,Calm,Calm,-,N/A,,Scattered Clouds,0,2012-10-07 18:53:00
2:53 PM,50.0,26.1,39,30.29,10.0,SW,4.6,-,N/A,,Overcast,230,2012-10-07 19:53:00
3:53 PM,50.0,27.0,41,30.28,10.0,WSW,5.8,-,N/A,,Overcast,250,2012-10-07 20:53:00
4:53 PM,48.0,30.0,50,30.27,10.0,South,10.4,-,0.00,,Overcast,170,2012-10-07 21:53:00
5:53 PM,46.9,33.1,59,30.26,10.0,South,5.8,-,N/A,,Overcast,180,2012-10-07 22:53:00
6:53 PM,46.0,35.1,66,30.26,10.0,South,6.9,-,N/A,,Overcast,190,2012-10-07 23:53:00
7:53 PM,45.0,37.0,74,30.27,10.0,WSW,3.5,-,N/A,,Overcast,240,2012-10-08 00:53:00
8:53 PM,45.0,37.0,74,30.27,10.0,SSW,4.6,-,N/A,,Overcast,200,2012-10-08 01:53:00
9:53 PM,41.0,36.0,82,30.26,10.0,South,3.5,-,N/A,,Clear,170,2012-10-08 02:53:00
10:53 PM,37.9,35.1,89,30.27,9.0,Calm,Calm,-,N/A,,Clear,0,2012-10-08 03:53:00
11:53 PM,37.0,35.1,93,30.26,8.0,SSW,3.5,-,N/A,,Clear,210,2012-10-08 04:53:00